Wind_Speed
72 72 67 65 61 61 61 63 65 65 63 60 59 61 62 67 73 75 77 80 83 83 85 87 89 92 94 94 95 96 98 100 107 110 108 107 102 98 97 91 85 76 63 39
74 70 71 67 66 65 63 63 64 65 71 70 71 63 69 76 78 79 85 89 91 94 95 96 97 99 101 104 104 103 106 110 112 113 112 110 108 100 96 95 89 79 70 66
78 75 76 76 74 71 71 72 71 69 68 73 77 78 74 66 66 78 88 92 95 97 98 100 104 106 110 111 109 109 107 107 102 103 104 105 103 103 95 91 90 85 77 67
82 82 84 83 80 79 76 79 78 75 74 76 78 81 77 74 70 71 80 85 92 98 102 103 107 109 111 110 105 99 99 97 93 93 93 97 100 103 101 96 93 89 81 73
86 89 90 90 86 85 83 81 78 79 80 79 81 88 76 75 79 80 79 81 84 85 86 89 96 97 97 98 97 93 91 92 89 86 82 82 86 89 89 92 87 86 79 77
90 94 92 89 88 89 87 87 85 86 84 78 79 88 73 76 86 86 83 82 82 79 80 85 88 87 90 87 84 83 80 79 76 74 71 72 73 75 79 80 81 81 76 74
99 94 94 96 92 91 92 94 93 88 87 84 89 86 77 77 82 85 85 84 76 74 77 80 81 81 79 74 69 64 61 59 64 65 64 62 62 60 67 69 72 74 73 67
104 102 101 100 95 96 93 94 93 88 87 81 81 80 78 79 75 78 79 79 72 71 66 65 64 68 65 61 57 50 48 53 55 57 56 53 51 45 51 59 62 60 66 63
107 104 104 103 98 103 98 91 86 83 77 75 76 74 71 73 75 76 78 73 70 66 61 59 59 59 55 52 47 41 39 43 44 43 46 44 36 35 44 51 53 54 61 63
100 98 105 103 101 97 93 87 79 73 71 72 70 70 68 71 72 76 70 71 69 65 60 57 57 52 48 44 40 36 37 37 36 36 39 38 28 30 39 43 46 51 59 62
102 95 97 96 93 87 81 74 68 67 65 65 63 62 66 69 67 66 69 68 68 59 58 54 50 45 40 38 35 34 30 31 34 31 34 33 24 26 33 39 46 52 63 65
85 84 82 80 79 75 68 62 61 60 58 60 60 59 56 58 65 66 69 68 63 55 56 48 43 35 32 31 28 23 28 29 33 31 27 25 20 17 29 37 46 61 66 73
68 65 63 64 62 57 57 55 52 52 54 52 52 48 56 60 63 67 67 63 57 54 50 37 37 31 28 30 28 23 24 25 29 26 23 22 20 25 32 38 47 58 69 78
50 45 45 47 48 45 44 43 43 45 37 44 49 53 56 62 62 61 59 59 55 48 40 32 31 32 28 25 29 25 23 24 23 23 14 13 18 25 34 42 55 66 68 84
33 30 30 30 29 31 30 34 34 28 43 47 52 53 54 58 53 54 58 56 51 41 34 27 28 30 25 24 19 25 26 21 25 24 20 18 20 31 38 44 54 65 74 79
29 26 26 24 18 21 21 19 33 43 46 50 53 49 52 46 52 56 55 53 46 37 30 29 26 27 26 26 22 23 23 21 18 22 18 17 22 24 34 42 53 64 80 74
27 30 28 29 30 19 26 31 42 45 45 44 44 39 45 50 55 55 49 49 43 34 31 26 26 24 26 29 26 24 24 20 18 22 18 14 19 22 28 40 51 58 66 75
28 28 31 35 28 28 36 38 40 39 38 33 31 40 46 53 55 53 48 48 42 35 32 29 28 25 23 23 21 23 23 25 21 23 25 19 19 21 27 36 47 54 65 71
34 37 30 26 24 30 34 34 32 29 25 28 36 44 49 55 56 54 51 47 42 36 33 32 31 28 22 22 21 22 25 24 24 22 23 21 20 23 26 34 47 58 66 71
27 27 27 25 25 27 26 27 21 26 29 33 41 47 53 56 58 54 53 49 42 37 35 34 35 33 30 28 25 25 28 27 26 27 26 26 27 28 28 31 38 47 57 65
26 26 26 24 23 26 19 21 27 26 32 40 45 51 56 57 58 55 54 51 44 37 36 38 37 34 36 36 33 31 32 34 32 30 32 32 33 37 38 38 37 43 46 59
24 23 20 20 21 23 24 26 26 29 38 44 50 54 58 59 61 60 54 50 46 40 37 40 41 38 37 39 42 40 37 39 40 39 38 41 41 43 44 44 47 49 51 56
24 18 19 20 21 25 28 29 33 38 45 51 57 59 61 62 61 58 53 48 44 42 40 39 43 42 42 41 42 48 47 44 45 48 47 48 49 50 52 54 54 55 57 60
20 19 19 22 25 28 31 35 42 47 53 57 60 59 64 65 58 55 50 46 44 43 42 43 43 47 47 47 47 47 50 53 53 54 54 55 57 57 59 61 62 63 63 65
15 18 23 27 29 31 34 42 45 51 57 56 58 64 66 58 54 51 48 45 44 44 45 45 46 47 50 51 53 53 53 55 57 64 64 64 65 66 67 67 69 70 73 74
21 23 25 28 30 35 38 42 50 56 56 58 62 63 58 53 50 48 46 45 44 45 47 48 49 51 53 55 56 57 58 59 61 63 65 69 73 76 77 76 75 77 80 82
Wind_Direction
280 279 274 277 277 278 280 283 287 290 285 287 278 273 271 271 272 273 269 267 265 264 264 265 266 266 266 266 267 270 271 271 272 273 272 272 270 268 268 268 262 258 247 228
272 273 273 275 277 277 279 282 284 286 289 289 289 279 269 266 270 273 270 267 266 266 266 268 269 269 268 269 271 270 271 271 272 273 272 272 272 268 265 263 261 255 250 234
273 275 274 276 278 279 280 281 282 283 282 283 290 292 293 286 283 273 270 271 271 272 273 274 274 274 274 274 275 274 273 274 273 272 271 270 268 267 263 258 258 256 250 233
273 271 272 273 276 277 278 280 283 282 281 285 291 294 294 289 289 282 270 271 272 272 271 271 273 274 275 277 277 278 279 278 275 271 267 265 262 261 261 258 253 253 249 237
270 272 272 273 276 277 279 283 284 283 282 284 290 287 294 289 286 284 283 277 273 273 276 277 276 278 279 280 280 282 281 280 276 273 270 264 261 258 256 255 248 247 243 238
270 272 274 276 276 277 279 280 279 282 286 288 283 285 291 282 281 283 286 284 279 282 285 283 283 284 283 284 284 282 278 278 278 274 271 265 259 256 254 249 248 242 239 234
268 270 273 273 273 276 278 280 281 283 285 284 285 286 288 281 280 282 285 284 284 286 285 284 286 286 287 286 283 282 280 278 275 275 271 266 263 255 251 248 242 238 235 229
269 267 268 272 274 275 276 279 282 282 282 283 282 285 281 280 280 283 284 289 290 294 291 288 291 291 291 289 286 284 282 277 275 275 275 272 266 259 245 242 238 231 226 222
270 268 269 270 275 276 278 280 276 279 278 278 281 280 283 282 283 285 287 291 297 300 301 296 297 292 291 288 289 289 283 282 280 284 285 278 271 252 235 231 228 220 216 210
272 269 270 271 273 274 274 275 273 274 272 275 276 277 280 282 285 287 291 297 302 304 301 302 299 294 290 289 292 296 292 292 290 288 291 287 270 242 230 226 215 208 205 199
270 270 270 271 272 271 270 271 268 267 268 270 272 276 277 281 284 287 294 299 302 302 301 302 292 289 285 291 293 298 299 297 288 295 296 287 262 239 217 210 205 195 188 185
267 267 267 265 266 263 259 259 262 264 266 267 268 272 277 276 284 290 296 300 300 303 300 294 287 281 280 282 292 300 298 300 295 305 292 271 258 227 210 204 196 185 190 191
264 265 264 263 260 257 253 252 254 257 259 264 271 267 272 280 287 292 296 297 304 303 295 286 282 274 273 278 285 291 301 300 289 294 279 247 231 191 194 194 195 184 185 194
263 259 254 251 250 250 248 246 246 249 254 256 257 267 274 281 286 290 295 300 304 299 289 284 265 262 264 266 283 288 298 286 288 294 259 240 194 190 195 190 189 188 193 193
255 250 237 232 225 229 227 229 242 241 243 252 260 269 274 281 286 293 296 303 306 298 289 273 251 260 262 255 267 282 293 275 266 270 276 252 230 206 200 196 192 193 195 202
246 230 211 197 204 205 208 221 234 241 243 252 265 269 279 283 291 293 300 306 309 298 287 266 246 254 253 243 259 270 282 275 255 258 267 257 238 225 208 204 201 199 195 201
229 200 195 189 190 187 216 228 240 243 254 259 269 274 282 288 292 296 301 309 308 297 284 258 245 252 254 250 241 258 264 267 277 279 251 247 228 226 218 213 206 204 204 199
196 191 196 208 216 217 224 234 244 249 261 269 275 281 284 290 292 302 303 310 307 296 281 259 242 252 256 252 254 254 266 258 257 277 268 250 239 223 215 214 213 210 211 211
204 197 204 202 224 238 230 234 252 261 264 273 278 283 289 291 298 304 303 306 303 291 277 263 250 246 243 248 247 255 253 255 260 259 262 259 233 224 215 214 214 211 213 213
208 198 214 227 241 248 245 254 256 259 267 280 283 287 291 294 302 304 305 304 299 287 276 264 253 249 241 246 246 244 246 254 252 250 247 246 229 233 235 230 221 219 219 221
208 215 228 238 245 255 242 250 254 267 283 284 287 291 293 300 303 303 302 300 294 281 271 261 254 250 243 242 246 246 244 241 247 247 241 238 240 236 236 238 236 231 230 227
222 228 240 237 233 243 253 256 264 279 282 287 288 289 294 301 302 301 299 294 289 280 266 258 252 245 242 240 243 244 245 245 241 241 242 243 241 240 241 244 245 241 238 238
237 234 223 231 242 250 254 259 264 266 270 278 284 288 298 300 300 297 294 287 281 275 269 259 251 247 240 240 243 241 241 243 245 244 244 241 243 243 243 245 246 247 247 244
221 227 241 248 250 255 259 265 269 274 277 281 288 297 299 300 297 293 288 283 275 270 265 261 254 247 243 241 242 242 244 244 242 244 245 246 247 249 249 247 247 248 248 249
231 245 251 257 260 266 271 278 289 290 288 292 297 299 301 298 293 290 284 278 272 267 263 260 258 252 246 245 245 244 246 245 245 244 244 247 249 249 251 251 250 253 256 256
246 254 260 267 276 282 288 291 289 294 298 303 303 304 302 299 295 290 283 277 270 265 261 258 256 255 253 252 251 249 249 249 249 250 251 252 253 253 254 256 256 257 258 259
Height
10633 10636 10630 10627 10633 10631 10629 10628 10627 10620 10619 10622 10616 10620 10626 10623 10618 10614 10612 10608 10605 10604 10600 10599 10597 10593 10590 10589 10590 10587 10587 10584 10577 10574 10579 10584 10593 10600 10603 10614 10626 10640 10663 10655
10617 10623 10612 10613 10615 10616 10614 10611 10610 10608 10601 10599 10595 10604 10608 10606 10600 10595 10592 10589 10585 10579 10579 10576 10573 10569 10567 10564 10563 10567 10562 10558 10556 10553 10551 10552 10553 10567 10578 10583 10595 10615 10635 10655
10602 10603 10601 10596 10598 10599 10598 10597 10595 10594 10586 10579 10578 10583 10588 10586 10583 10579 10574 10568 10564 10561 10559 10555 10547 10542 10538 10537 10537 10535 10532 10526 10528 10523 10524 10523 10526 10525 10539 10554 10566 10583 10604 10626
10583 10582 10577 10580 10584 10581 10583 10576 10579 10574 10570 10566 10563 10561 10568 10567 10564 10557 10553 10549 10545 10542 10542 10536 10528 10522 10518 10515 10507 10504 10498 10493 10492 10490 10495 10494 10496 10497 10503 10519 10537 10549 10572 10596
10566 10560 10556 10560 10564 10562 10565 10562 10559 10555 10553 10556 10550 10528 10555 10547 10543 10535 10534 10529 10524 10521 10519 10510 10507 10503 10497 10489 10484 10477 10470 10463 10453 10453 10459 10461 10462 10467 10475 10486 10504 10517 10538 10559
10544 10536 10539 10541 10540 10541 10542 10542 10535 10535 10536 10543 10530 10511 10540 10530 10518 10516 10515 10509 10504 10503 10497 10490 10486 10481 10470 10466 10461 10455 10444 10436 10429 10425 10427 10429 10431 10439 10444 10453 10469 10491 10508 10532
10516 10523 10518 10517 10522 10521 10518 10518 10517 10520 10517 10520 10510 10502 10515 10509 10503 10499 10495 10489 10488 10485 10478 10471 10466 10454 10448 10443 10436 10430 10426 10419 10409 10402 10400 10404 10408 10415 10421 10429 10441 10461 10484 10510
10492 10500 10494 10493 10502 10495 10498 10497 10499 10496 10497 10501 10494 10492 10492 10485 10482 10481 10474 10470 10467 10464 10458 10452 10445 10434 10427 10422 10417 10414 10409 10400 10393 10387 10383 10386 10392 10396 10401 10408 10420 10439 10463 10491
10463 10477 10469 10469 10474 10472 10478 10480 10472 10476 10479 10480 10479 10474 10475 10468 10463 10461 10458 10454 10450 10443 10438 10434 10426 10419 10413 10406 10403 10400 10393 10385 10381 10376 10371 10371 10377 10378 10382 10389 10403 10423 10445 10468
10437 10448 10441 10446 10448 10452 10455 10456 10455 10459 10461 10461 10463 10462 10459 10451 10448 10445 10443 10439 10434 10427 10421 10417 10408 10403 10399 10395 10390 10386 10381 10375 10371 10368 10364 10361 10362 10363 10368 10377 10393 10411 10430 10451
10410 10416 10418 10420 10427 10429 10430 10433 10438 10440 10444 10445 10448 10448 10442 10440 10436 10434 10430 10426 10420 10415 10408 10403 10396 10391 10387 10384 10381 10377 10373 10369 10363 10362 10360 10353 10353 10354 10357 10366 10381 10398 10418 10437
10385 10391 10394 10398 10400 10404 10409 10414 10418 10425 10428 10431 10434 10438 10429 10427 10425 10422 10417 10413 10406 10402 10395 10390 10384 10382 10379 10376 10374 10371 10367 10363 10359 10355 10355 10348 10347 10354 10358 10366 10375 10391 10411 10420
10364 10371 10374 10375 10380 10387 10392 10398 10404 10410 10414 10418 10421 10424 10417 10415 10412 10408 10404 10399 10394 10388 10381 10378 10373 10372 10372 10369 10366 10365 10363 10359 10356 10354 10349 10344 10345 10347 10350 10359 10374 10387 10400 10414
10350 10354 10356 10359 10363 10371 10379 10386 10391 10397 10402 10407 10408 10411 10406 10403 10400 10396 10392 10388 10383 10375 10369 10367 10364 10363 10365 10362 10360 10359 10357 10355 10353 10350 10347 10341 10346 10347 10349 10355 10365 10381 10393 10404
10338 10342 10344 10348 10353 10360 10368 10374 10382 10389 10394 10398 10397 10398 10396 10392 10388 10385 10380 10376 10369 10362 10358 10357 10356 10355 10356 10357 10356 10353 10352 10350 10347 10345 10344 10343 10341 10344 10347 10353 10363 10375 10382 10395
10331 10333 10338 10343 10350 10356 10364 10370 10377 10381 10384 10387 10387 10387 10385 10382 10378 10374 10370 10364 10357 10352 10349 10347 10348 10347 10348 10350 10351 10350 10347 10345 10342 10341 10340 10340 10340 10343 10346 10353 10358 10369 10379 10389
10325 10329 10334 10339 10345 10353 10360 10365 10369 10373 10376 10377 10378 10377 10374 10370 10366 10363 10359 10353 10347 10343 10341 10340 10340 10341 10340 10340 10342 10344 10344 10341 10339 10338 10337 10337 10338 10339 10343 10347 10353 10359 10369 10377
10321 10325 10331 10336 10344 10348 10353 10359 10363 10365 10367 10368 10369 10367 10363 10360 10355 10351 10347 10342 10338 10334 10332 10332 10332 10332 10333 10333 10334 10335 10336 10336 10335 10334 10333 10333 10333 10334 10337 10341 10347 10355 10361 10368
10314 10322 10329 10335 10341 10343 10348 10353 10356 10357 10358 10360 10359 10356 10353 10348 10344 10339 10335 10333 10328 10324 10323 10323 10323 10324 10325 10326 10326 10327 10329 10329 10330 10330 10329 10329 10329 10329 10331 10334 10340 10345 10352 10356
10313 10320 10327 10333 10337 10338 10342 10346 10348 10349 10349 10349 10347 10346 10341 10337 10332 10327 10322 10319 10316 10313 10312 10312 10313 10314 10315 10317 10318 10319 10321 10322 10323 10324 10324 10325 10326 10326 10327 10328 10331 10336 10340 10344
10313 10318 10324 10329 10332 10333 10337 10341 10341 10341 10339 10338 10337 10333 10327 10324 10319 10315 10310 10305 10303 10302 10301 10301 10302 10303 10304 10306 10308 10309 10311 10312 10314 10316 10318 10319 10320 10320 10321 10322 10323 10324 10325 10328
10311 10315 10319 10324 10326 10328 10332 10333 10334 10333 10329 10327 10324 10320 10316 10312 10305 10300 10296 10292 10288 10288 10288 10289 10290 10291 10293 10295 10297 10297 10299 10301 10302 10303 10306 10308 10309 10311 10312 10313 10314 10316 10317 10318
10306 10311 10316 10319 10322 10324 10325 10325 10325 10324 10322 10316 10311 10309 10305 10298 10290 10284 10280 10277 10274 10274 10274 10276 10277 10278 10280 10281 10284 10285 10287 10288 10290 10291 10292 10293 10296 10297 10298 10299 10299 10300 10302 10303
10303 10307 10310 10313 10316 10318 10318 10317 10314 10314 10311 10306 10300 10294 10288 10281 10274 10268 10263 10261 10259 10259 10259 10260 10263 10264 10266 10268 10269 10271 10272 10275 10276 10277 10278 10279 10279 10280 10281 10281 10281 10281 10282 10282
10300 10303 10305 10307 10309 10310 10309 10306 10305 10301 10297 10293 10289 10279 10270 10262 10256 10251 10246 10245 10243 10243 10243 10245 10247 10249 10251 10252 10254 10256 10257 10258 10259 10260 10260 10261 10262 10261 10260 10261 10262 10262 10261 10260
10294 10298 10299 10300 10301 10302 10300 10298 10293 10288 10282 10278 10269 10258 10249 10243 10237 10233 10229 10228 10227 10228 10228 10229 10231 10232 10234 10236 10238 10240 10241 10241 10241 10242 10244 10244 10244 10243 10242 10241 10242 10242 10240 10238